Location: Ravensburg
(47.7866°N, 9.6124°E)
Time: 23:19:27
(UTC+01:00)

DOVE 4 - Visible Passes

Search period start: 12 March 2026 00:00
Search period end: 22 March 2026 00:00
Orbit: 572 x 756 km, 97.7° (Epoch: 12 March)

Date Brightness Start Highest point End Pass type
(mag) Time Alt. Az. Time Alt. Az. Time Alt. Az.
12 Mar ? 06:10:18 10° SE 06:13:53 31° ENE 06:17:33 10° N visible
12 Mar ? 19:36:07 10° NNE 19:40:36 51° E 19:45:17 10° S visible
12 Mar ? 21:13:52 10° NNW 21:17:20 22° WNW 21:20:55 10° WSW visible
13 Mar ? 20:06:51 10° NNE 20:11:28 82° WNW 20:16:17 10° SSW visible
13 Mar ? 21:45:56 10° NNW 21:47:49 12° WNW 21:49:44 10° W visible
14 Mar ? 05:36:24 10° E 05:38:49 15° ENE 05:41:16 10° NNE visible
14 Mar ? 19:01:13 10° NE 19:05:04 25° E 19:09:02 10° SSE visible
14 Mar ? 20:37:51 10° N 20:42:13 43° WNW 20:46:46 10° SW visible
15 Mar ? 19:31:32 10° NNE 19:36:03 48° E 19:40:46 10° S visible
15 Mar ? 21:09:08 10° NNW 21:12:50 24° WNW 21:16:39 10° WSW visible
16 Mar ? 20:02:13 10° NNE 20:06:56 89° W 20:11:50 10° SSW visible
16 Mar ? 21:40:59 10° NNW 21:43:19 14° WNW 21:45:41 10° W visible
17 Mar ? 05:31:59 10° E 05:34:15 14° ENE 05:36:34 10° NNE visible
17 Mar ? 18:56:40 10° NE 19:00:29 24° E 19:04:23 10° SE visible
17 Mar ? 20:33:10 10° N 20:37:40 47° WNW 20:42:21 10° SW visible
18 Mar ? 19:26:56 10° NNE 19:31:29 44° E 19:36:11 10° S visible
18 Mar ? 21:04:23 10° N 21:08:18 26° WNW 21:12:19 10° WSW visible
19 Mar ? 19:57:34 10° NNE 20:02:21 85° ESE 20:07:19 10° SSW visible
19 Mar ? 21:36:05 10° NNW 21:38:47 15° WNW 21:41:32 10° W visible
20 Mar ? 05:27:33 10° E 05:29:39 14° ENE 05:31:48 10° NNE visible
20 Mar ? 20:28:28 10° N 20:33:06 52° WNW 20:37:54 10° SW visible
21 Mar ? 19:22:18 10° NNE 19:26:52 41° E 19:31:34 10° SSE visible
21 Mar ? 20:59:38 10° N 21:03:44 29° WNW 21:07:57 10° SW visible
